TimePST,TemperatureF,Dew PointF,Humidity,Sea Level PressureIn,VisibilityMPH,Wind Direction,Wind SpeedMPH,Gust SpeedMPH,PrecipitationIn,Events,Conditions,WindDirDegrees,DateUTC
12:08 AM,41.0,33.8,76,29.31,10.0,East,8.1,-,N/A,,Overcast,80,2012-12-17 08:08:00
12:56 AM,41.0,35.1,79,29.31,10.0,SE,12.7,-,0.00,,Overcast,130,2012-12-17 08:56:00
1:22 AM,39.2,35.6,87,29.29,10.0,SE,11.5,-,N/A,,Scattered Clouds,140,2012-12-17 09:22:00
1:56 AM,39.9,34.0,79,29.30,10.0,South,9.2,-,N/A,,Partly Cloudy,170,2012-12-17 09:56:00
2:56 AM,39.0,33.1,79,29.29,10.0,SE,10.4,-,N/A,,Clear,140,2012-12-17 10:56:00
3:56 AM,45.0,35.1,68,29.29,10.0,South,12.7,-,N/A,,Overcast,170,2012-12-17 11:56:00
4:56 AM,43.0,34.0,71,29.29,10.0,South,6.9,-,0.00,,Clear,190,2012-12-17 12:56:00
5:56 AM,44.1,34.0,68,29.31,10.0,SSW,13.8,-,N/A,,Partly Cloudy,200,2012-12-17 13:56:00
6:56 AM,46.0,32.0,58,29.34,10.0,South,9.2,-,N/A,,Mostly Cloudy,190,2012-12-17 14:56:00
7:56 AM,46.9,30.0,52,29.39,10.0,SSW,6.9,-,N/A,,Overcast,210,2012-12-17 15:56:00
8:56 AM,46.9,30.0,52,29.43,10.0,SSW,12.7,32.2,N/A,,Scattered Clouds,210,2012-12-17 16:56:00
9:56 AM,48.9,28.0,44,29.48,10.0,WSW,19.6,29.9,N/A,,Scattered Clouds,250,2012-12-17 17:56:00
10:56 AM,46.0,33.1,61,29.52,10.0,SSW,13.8,24.2,N/A,,Overcast,200,2012-12-17 18:56:00
11:56 AM,48.0,28.0,46,29.56,10.0,WSW,24.2,38.0,N/A,,Overcast,250,2012-12-17 19:56:00
12:56 PM,48.0,28.0,46,29.58,10.0,SW,26.5,32.2,N/A,,Scattered Clouds,230,2012-12-17 20:56:00
1:56 PM,46.0,24.1,42,29.63,10.0,WSW,19.6,32.2,N/A,,Partly Cloudy,250,2012-12-17 21:56:00
4:56 PM,42.1,21.0,43,29.71,10.0,WSW,19.6,26.5,N/A,,Clear,250,2012-12-18 00:56:00
5:56 PM,39.0,25.0,57,29.75,10.0,SSW,11.5,-,N/A,,Clear,210,2012-12-18 01:56:00
6:56 PM,39.9,21.0,47,29.78,10.0,West,9.2,26.5,N/A,,Clear,270,2012-12-18 02:56:00
7:56 PM,37.9,19.9,48,29.81,10.0,WSW,12.7,-,N/A,,Clear,240,2012-12-18 03:56:00
8:56 PM,37.0,21.9,54,29.84,10.0,SSE,4.6,-,N/A,,Partly Cloudy,160,2012-12-18 04:56:00
9:56 PM,36.0,24.1,62,29.86,10.0,South,5.8,-,N/A,,Partly Cloudy,170,2012-12-18 05:56:00
10:56 PM,36.0,23.0,59,29.87,10.0,SSW,5.8,-,N/A,,Clear,200,2012-12-18 06:56:00
11:56 PM,34.0,21.0,59,29.89,10.0,South,3.5,-,N/A,,Clear,190,2012-12-18 07:56:00